星链-4487 (STARLINK-4487 )

导读

STARLINK-4487是美国SpaceX公司星链(Starlink)卫星星座中的一颗卫星,于2022年8月19日发射入轨。星链项目旨在构建低地球轨道卫星互联网星座,为全球尤其是偏远地区提供高速宽带服务,该卫星配备激光通信终端,助力星链实现全球无缝覆盖的太空互联网络,是星链大规模星座部署中的组成单元。

基本信息
目录编号:
53531
目录名称:
STARLINK-4487
国际标识:
2022-101E
轨道中心:
EARTH
卫星名称:
星链-4487
卫星全名:
星链-4487 (STARLINK-4487 )
卫星状态:
在轨 (已飞行1485 天)
发射日期:
2022-08-19 UTC
国别 :
美国 (US)
星等 :
--
该卫星已列入 空间交会检测服务 Space Conjunction Data Service (SCDS) ,当前飞行风险评估等级: 无高风险
轨道信息
数据来源 国际轨道数据
星历时间: 2026-09-12T12:04:57+0800
6小时前
查看轨道信息
半长轴: 6848.864km
偏心率: 0.0001086
轨道倾角: 53.160°
近地点辐角 77.897°
升交点赤经 306.583°
平近点角 282.215°
近地点: 469.983km
远地点: 471.471km
周期: 94.013分钟
每日圈数: 15.317045
详细信息
固有亮度:
5
最大亮度:
2.5
卫星平台:
Starlink v1.5
覆盖范围:
全球
运营商:
太空探索技术公司
运营商所在国:
美国
制造商(研发单位):
太空探索技术公司
制造商所在国:
美国
使用方式:
暂无
卫星简介
星链(Starlink)计划是由太空探索技术公司(SpaceX)提出的一个巨型低轨卫星互联网星座项目,计划在2019年至2024年间在太空搭建由约1.2万颗卫星组成的“星链”网络,其中1584颗将部署在地球上空550千米处的近地轨道,并从2020年开始工作。该卫星仍在工作。
2D轨道图
3D轨道图
轨道高度分析图
轨道倾角分析图
轨道综合分析图
查看轨道综合分析图
交会数据列表
事件ID 空间交会对象 最接近时刻(TCA) 交会距离 交会风险概率(CRP) 交会风险指数(CRI) 操作
CDM_260914-021300-346205-353123
2026-09-14T
02:13:23+0000
1.489 km
极远距离
5.307077E-6 低风险 0.49
CDM_260913-222005-353106-493221
2026-09-13T
22:20:16+0000
2.478 km
极远距离
1.781506E-6 低风险 0.4
与全量物体交会距离演化趋势
与全量物体交会风险概率演化趋势